Waukegan, IL

10:31 AM CST on December 11, 2017 (GMT -0600)
Waukegan Regional

Weather History for KUGN - August, 2012

Change the Weather History Date:

Saturday, August 25, 2012

  Actual Average Record
Temperature  
Mean Temperature 77 °F -  
Max Temperature 91 °F 78 °F 91 °F (2003)
Min Temperature 62 °F 60 °F 50 °F (2017)
Degree Days  
Heating Degree Days 0 1  
Month to date heating degree days 9 1  
Since 1 June heating degree days 57 99  
Since 1 July heating degree days 9 13  
Cooling Degree Days 12 5  
Month to date cooling degree days 140 142  
Year to date cooling degree days 859 477  
Since 1 June cooling degree days 776 452  
Growing Degree Days 27 (Base 50)    
Moisture  
Dew Point 62 °F    
Average Humidity 61    
Maximum Humidity 87    
Minimum Humidity 34    
Precipitation  
Precipitation 0.00 in 0.13 in 0.34 in (2016)
Month to date precipitation 1.80 3.15  
Year to date precipitation 17.00 23.77  
Sea Level Pressure  
Sea Level Pressure 29.98 in    
Wind  
Wind Speed 6 mph (SSE)    
Max Wind Speed 14 mph    
Max Gust Speed 18 mph    
Visibility 10 miles    
Events      
T = Trace of Precipitation, MM = Missing Value Source: NWS Daily Summary

Daily Weather History Graph

Daily Weather History Graph

Search for Another Location

Airport or City:

Trip Planner

Search our weather history database for the weather conditions in past years. The results will help you decide how hot, cold, wet, or windy it might be!

Date:

Astronomy

Aug. 25, 2012 Rise Set
Actual Time 6:09 AM CDT 7:36 PM CDT
Civil Twilight 5:40 AM CDT 8:05 PM CDT
Nautical Twilight 5:04 AM CDT 8:40 PM CDT
Astronomical Twilight 4:27 AM CDT 9:18 PM CDT
Moon 3:13 PM CDT (8/25) No Moon Set
Length of Visible Light 14h 25m
Length of Day
13h 26m
Waxing Gibbous, 63% of the Moon is Illuminated
Aug 25
Waxing Gibbous
Aug 31
Full
Sep 8
Last Quarter
Sep 15
New
Sep 22
First Quarter

Hourly Weather History & Observations

Time (CDT) Temp. Heat Index Dew Point Humidity Pressure Visibility Wind Dir Wind Speed Gust Speed Precip Events Conditions
12:52 AM 72.0 °F - 59.0 °F 64% 29.96 in 10.0 mi South 4.6 mph - N/A   Clear
1:52 AM 71.1 °F - 59.0 °F 66% 29.96 in 10.0 mi South 5.8 mph - N/A   Clear
2:52 AM 71.1 °F - 57.9 °F 63% 29.97 in 10.0 mi South 4.6 mph - N/A   Clear
3:52 AM 64.0 °F - 59.0 °F 84% 29.97 in 10.0 mi South 3.5 mph - N/A   Clear
4:52 AM 64.0 °F - 59.0 °F 84% 29.98 in 10.0 mi Calm Calm - N/A   Clear
5:52 AM 64.0 °F - 59.0 °F 84% 30.00 in 10.0 mi Calm Calm - N/A   Partly Cloudy
6:52 AM 64.0 °F - 60.1 °F 87% 30.01 in 10.0 mi Calm Calm - N/A   Mostly Cloudy
7:52 AM 73.0 °F - 61.0 °F 66% 30.01 in 10.0 mi SSW 3.5 mph - N/A   Unknown
8:52 AM 77.0 °F - 61.0 °F 58% 30.01 in 10.0 mi SW 4.6 mph - N/A   Unknown
9:52 AM 82.0 °F 82.7 °F 61.0 °F 49% 30.02 in 10.0 mi SSW 4.6 mph - N/A   Partly Cloudy
10:52 AM 86.0 °F 85.7 °F 60.1 °F 41% 30.01 in 10.0 mi SW 5.8 mph - N/A   Clear
11:52 AM 90.0 °F 88.8 °F 57.9 °F 34% 30.00 in 10.0 mi SSW 10.4 mph - N/A   Clear
12:52 PM 88.0 °F 88.4 °F 62.1 °F 42% 29.99 in 10.0 mi SE 8.1 mph - N/A   Clear
1:52 PM 86.0 °F 86.8 °F 63.0 °F 46% 29.99 in 10.0 mi ESE 10.4 mph - N/A   Clear
2:52 PM 86.0 °F 86.1 °F 61.0 °F 43% 29.98 in 10.0 mi SE 9.2 mph - N/A   Clear
3:52 PM 82.9 °F 84.0 °F 63.0 °F 51% 29.98 in 10.0 mi SE 11.5 mph - N/A   Partly Cloudy
4:52 PM 82.9 °F 84.0 °F 63.0 °F 51% 29.97 in 10.0 mi SE 9.2 mph - N/A   Clear
5:52 PM 82.9 °F 84.0 °F 63.0 °F 51% 29.97 in 10.0 mi Variable 6.9 mph - N/A   Clear
6:52 PM 80.1 °F 81.7 °F 64.0 °F 58% 29.97 in 10.0 mi SE 8.1 mph - N/A   Clear
7:52 PM 79.0 °F - 64.9 °F 62% 29.97 in 10.0 mi SE 6.9 mph - N/A   Clear
8:52 PM 78.1 °F - 64.9 °F 64% 29.98 in 10.0 mi SE 8.1 mph - N/A   Clear
9:52 PM 78.1 °F - 66.0 °F 66% 29.98 in 10.0 mi SE 6.9 mph - N/A   Clear
10:52 PM 75.9 °F - 66.9 °F 74% 29.98 in 10.0 mi SSE 6.9 mph - N/A   Clear
11:52 PM 75.0 °F - 68.0 °F 79% 29.98 in 9.0 mi SE 5.8 mph - N/A   Clear